[Iaude] MPEC C59: 2024 CW [a=2.18,e=0.56,i=65.1,H=21.7]
    mpec at cfa.harvard.edu 
    mpec at cfa.harvard.edu
       
    Tue Feb  6 03:07:56 EST 2024
    
    
  
M.P.E.C. 2024-C59                              Issued 2024 February 6, 08:06 UT
     The Minor Planet Electronic Circulars contain information on unusual
         minor planets, routine data on comets and natural satellites,
         and occasional editorial announcements.  They are published
    on behalf of Division F of the International Astronomical Union by the
          Minor Planet Center, Smithsonian Astrophysical Observatory,
                          Cambridge, MA 02138, U.S.A.
			  
             Prepared using the Tamkin Foundation Computer Network
                              MPC at CFA.HARVARD.EDU
            URL https://www.minorplanetcenter.net/    ISSN 1523-6714
                                    2024 CW                                     
Observations:
     K24C00W* C2024 02 04.41177210 35 47.854+23 19 03.44         20.73wXEC059F52
     K24C00W  C2024 02 04.43639110 35 41.232+23 24 23.63         20.46wXEC059F52
     K24C00W  C2024 02 04.44872010 35 37.917+23 27 03.50         20.30wXEC059F52
     K24C00W  C2024 02 04.56957110 35 05.299+23 53 01.18         20.04GVEC059F52
     K24C00W  C2024 02 04.57021810 35 05.122+23 53 09.59         19.90GVEC059F52
     K24C00W KC2024 02 05.22117010 32 18.83 +26 10 11.9          19.6 GXEC059858
     K24C00W KC2024 02 05.22824910 32 16.96 +26 11 40.1          19.7 GXEC059858
     K24C00W KC2024 02 05.23500910 32 15.09 +26 13 04.6          19.9 GXEC059858
     K24C00W KC2024 02 05.23572410 32 14.40 +26 13 13.3          20.1 GVEC059H21
     K24C00W KC2024 02 05.23852010 32 13.64 +26 13 48.0          20.3 GVEC059H21
     K24C00W KC2024 02 05.24131610 32 12.88 +26 14 22.9          20.2 GVEC059H21
     K24C00W KC2024 02 05.24411110 32 12.13 +26 14 57.4          20.6 GVEC059H21
     K24C00W mC2024 02 05.52886010 30 55.379+27 13 23.92               VEC059I52
     K24C00W mC2024 02 05.52945710 30 55.170+27 13 31.73         20.70GVEC059I52
     K24C00W mC2024 02 05.53005910 30 55.040+27 13 39.29         20.52GVEC059I52
     K24C00W 1C2024 02 05.83127 10 29 38.79 +28 14 18.3          20.1 VXEC059033
     K24C00W 1C2024 02 05.83196 10 29 38.60 +28 14 27.2          20.1 VXEC059033
     K24C00W 1C2024 02 05.83264 10 29 38.41 +28 14 35.8          20.4 VXEC059033
     K24C00W KC2024 02 05.87605 10 29 26.92 +28 23 23.0          21.0 VZEC059M63
     K24C00W KC2024 02 05.88616 10 29 24.25 +28 25 24.5          20.4 VZEC059M63
     K24C00W KB2024 02 05.88992 10 29 23.129+28 26 04.02         19.9 GXEC059K74
     K24C00W KC2024 02 05.89602 10 29 21.52 +28 27 23.4          20.6 VZEC059M63
     K24C00W KB2024 02 05.89686 10 29 21.240+28 27 27.22         19.9 GXEC059K74
     K24C00W KB2024 02 05.90366 10 29 19.387+28 28 48.83         20.2 GXEC059K74
     K24C00W KB2024 02 05.90735 10 29 18.389+28 29 33.65         19.9 GXEC059K74
     K24C00W KB2024 02 05.90883 10 29 17.998+28 29 51.29         20.0 GXEC059K74
     K24C00W KB2024 02 05.91326 10 29 16.822+28 30 44.57         20.4 GXEC059K74
     K24C00W KB2024 02 06.07019 10 28 34.04 +29 01 56.0          19.9 VZEC059C95
     K24C00W KB2024 02 06.10541 10 28 24.39 +29 08 51.9          20.1 VZEC059C95
     K24C00W KC2024 02 06.31648810 27 28.80 +29 50 11.3          20.9 GVEC059H21
     K24C00W KC2024 02 06.31928810 27 28.03 +29 50 44.2          20.9 GVEC059H21
     K24C00W KC2024 02 06.32208710 27 27.24 +29 51 16.7          21.0 GVEC059H21
     K24C00W KC2024 02 06.32479310 27 26.48 +29 51 48.2          21.3 GVEC059H21
Observer details:
033 Karl Schwarzschild Observatory, Tautenburg.  Observers S. Melnikov, C.
    Hogner, F. Ludwig, M. Hartmann, B. Stecklum.  Measurer B. Stecklum.
    1.34-m f/3 Schmidt + CCD.
858 Tebbutt Observatory, Edgewood.  Observer F. B. Zoltowski.  0.51-m f/8.1
    Schmidt-Cassegrain + CCD.
C95 SATINO Remote Observatory, Haute Provence.  Observer D. Husar.  0.30-m
    f/5.8 reflector + CMO.
F52 Pan-STARRS 2, Haleakala.  Observers J. Herman, T. Lowe, P. Minguez, A.
    Schultz, I. Smith.  Measurers K. Chambers, T. de Boer, J. Fairlamb, H.
    Gao, M. Huber, C.-C. Lin, E. Magnier, Y. Ramanjooloo, R. Wainscoat, R.
    Weryk.  1.8-m Ritchey-Chretien + CCD.
H21 Astronomical Research Observatory, Westfield.  Observer R. Holmes.
    Measurers T. Linder, R. Holmes, L. Horn.  0.76-m f/3.0 astrograph + CCD.
I52 Steward Observatory, Mt. Lemmon Station.  Observer H. Groeller.  Measurers
    E. C. Beshore, D. Fay, J. B. Fazekas, D. C. Fuls, A. R. Gibbs, A. D.
    Grauer, H. Groeller, J. K. Hogan, R. A. Kowalski, S. M. Larson, G. J.
    Leonard, D. Rankin, R. L. Seaman, F. C. Shelly, K. W. Wierzchos.  1.0-m
    prime focus + CCD.
K74 Muensterschwarzach Observatory, Schwarzach.  Observer C. Gerhard.  0.30-m
    f/3.75 reflector + CMO.
M63 RPF Observatory, Gagliano del Capo.  Observer D. Licchelli.  0.30-m f/5.3
    reflector + CCD.
Orbital elements:
2024 CW                                                  Earth MOID = 0.2112 AU
Epoch 2023 Sept. 13.0 TT = JDT 2460200.5                MPC                     
M 335.47844              (2000.0)            P               Q                  
n   0.30556354     Peri.  294.03319     -0.03564394     -0.78523765             
a   2.1830735      Node   137.02756     +0.84252996     +0.30905702             
e   0.5590687      Incl.   65.07693     -0.53746886     +0.53654971             
P   3.23           H   21.79          G   0.15           U   9                  
Residuals in seconds of arc
240204 F52  0.1-  0.5-    240205 H21  0.1+  0.1-    240205 K74  0.1+  0.4-
240204 F52  0.4-  0.1+    240205 I52  0.4+  0.7-    240205 K74  0.2-  0.3-
240204 F52  0.4-  0.1+    240205 I52  0.3-  0.1-    240205 K74  0.2-  0.2+
240204 F52  0.3-  0.2-    240205 I52  0.2+  0.1+    240205 K74  0.0   0.1+
240204 F52  0.3-  0.1-    240205 033  0.0   0.3+    240205 K74  0.3+  0.2+
240205 858  0.0   0.2+    240205 033  0.1-  0.8+    240206 C95  0.1+  0.1+
240205 858  0.4+  0.0     240205 033  0.2-  1.2+    240206 C95  0.5+  0.2+
240205 858  0.3-  0.2+    240205 M63  0.1-  0.0     240206 H21  0.1+  0.2-
240205 H21  0.0   0.2+    240205 M63  0.9+  0.1-    240206 H21  0.1+  0.1+
240205 H21  0.0   0.1+    240205 K74  0.3+  0.2-    240206 H21  0.1-  0.0
240205 H21  0.0   0.2+    240205 M63  0.3+  0.4+    240206 H21  0.2-  0.0
Ephemeris:
2024 CW                  a,e,i = 2.18, 0.56, 65                  q = 0.9626
Date    TT    R. A. (2000) Decl.     Delta      r    Elong.  Phase     V
2024 01 07    11 51 52.9 -49 58 28   0.5217  1.0672    84.4    66.5    22.9
...
2024 01 22    11 22 53.0 -25 14 37   0.3200  1.1584   115.5    50.1    21.5
...
2024 01 30    10 57 22.9 +02 16 22   0.2690  1.2136   144.3    28.2    20.6
...
2024 02 05    10 33 15.1 +25 24 05   0.2864  1.2571   158.8    16.5    20.5
2024 02 06    10 28 53.1 +28 48 02   0.2941  1.2645   158.7    16.5    20.5
2024 02 07    10 24 26.4 +32 00 01   0.3029  1.2719   157.9    17.0    20.6
...
2024 02 13    09 56 49.8 +46 52 22   0.3752  1.3170   146.7    24.3    21.4
...
2024 02 21    09 21 22.2 +57 37 41   0.5035  1.3785   132.2    32.1    22.4
...
2024 03 07    08 36 13.0 +64 46 45   0.7805  1.4957   114.5    37.1    23.6
A. U. Tomatic                (C) Copyright 2024 MPC           M.P.E.C. 2024-C59
    
    
More information about the Iaude
mailing list